|
NORAD ID: 35477 Int'l Code: 1997-051PX
Perigee: 757.4 km
Apogee: 958.1 km
Inclination: 86.4 °
Period: 101.9 minutes
Semi major axis: 7228 km
Launch date: September 14, 1997
Source: United States (US)
Note: This is SATELLITE DEBRIS
Two Line Element Set (TLE):
1 35477U 97051PX 13137.51222382 .00004702 00000-0 23135-2 0 2237
2 35477 086.3913 220.8107 0138814 277.7967 075.5333 14.12557361207480
Source:
NASA's NSSDC Master Catalog entry for IRIDIUM 33 DEB
|